This is the latest recevied weather packets stored in our database for station/object N4AR. If no packets are shown the sender has not sent any weather packets the latest 10 day(s).
| Time | Temp. | Humidity | Pressure | Rain* | Wind** | Luminosity | Snow |
|---|---|---|---|---|---|---|---|
| 1777937289 | 23.33° C | 35% | 1012.5 hPa | 0 mm | - | 21 W/m² | - |
| 1777936987 | 23.89° C | 35% | 1012.5 hPa | 0 mm | - | 23 W/m² | - |
| 1777936684 | 23.89° C | 34% | 1012.7 hPa | 0 mm | - | 24 W/m² | - |
| 1777936380 | 23.89° C | 34% | 1012.6 hPa | 0 mm | - | 23 W/m² | - |
| 1777936076 | 23.89° C | 34% | 1012.5 hPa | 0 mm | - | 24 W/m² | - |
| 1777935774 | 24.44° C | 33% | 1012.5 hPa | 0 mm | - | 28 W/m² | - |
| 1777935473 | 25° C | 32% | 1012.6 hPa | 0 mm | - | 35 W/m² | - |
| 1777935168 | 25.56° C | 32% | 1012.5 hPa | 0 mm | - | 48 W/m² | - |
| 1777934866 | 25.56° C | 31% | 1012.6 hPa | 0 mm | - | 88 W/m² | - |
| 1777934563 | 26.11° C | 30% | 1012.6 hPa | 0 mm | - | 128 W/m² | - |
| 1777934259 | 26.67° C | 30% | 1012.4 hPa | 0 mm | - | 159 W/m² | - |
| 1777933955 | 26.67° C | 30% | 1012.5 hPa | 0 mm | - | 174 W/m² | - |
| 1777933652 | 26.67° C | 30% | 1012.4 hPa | 0 mm | - | 184 W/m² | - |
| 1777933349 | 26.11° C | 30% | 1012.4 hPa | 0 mm | - | 195 W/m² | - |
| 1777933046 | 26.11° C | 30% | 1012.4 hPa | 0 mm | - | 217 W/m² | - |
| 1777932743 | 25.56° C | 30% | 1012.5 hPa | 0 mm | - | 229 W/m² | - |
| 1777932440 | 25.56° C | 31% | 1012.5 hPa | 0 mm | - | 191 W/m² | - |
| 1777932138 | 25.56° C | 32% | 1012.5 hPa | 0 mm | - | 164 W/m² | - |
| 1777931834 | 26.11° C | 30% | 1012.5 hPa | 0 mm | - | 72 W/m² | - |
| 1777931531 | 26.67° C | 28% | 1012.6 hPa | 0 mm | - | 83 W/m² | - |
| 1777931227 | 26.67° C | 28% | 1012.6 hPa | 0 mm | - | 216 W/m² | - |
| 1777930924 | 26.67° C | 28% | 1012.5 hPa | 0 mm | - | 303 W/m² | - |
| 1777930620 | 26.67° C | 28% | 1012.8 hPa | 0 mm | - | 363 W/m² | - |
| 1777930317 | 26.67° C | 27% | 1012.5 hPa | 0 mm | - | 384 W/m² | - |
| 1777930014 | 27.22° C | 27% | 1012.5 hPa | 0 mm | - | 406 W/m² | - |
* Rain latest hour (hover to see other rain measurements)
** Current wind speed in m/s (hover to see current wind gust speed)